Weather History for Newport Airport, OR

Change the Weather History Date:

Sunday, January 20, 2013

  Actual Average Record
Temperature  
Mean Temperature 42 °F -  
Max Temperature 53 °F 48 °F 59 °F (2009)
Min Temperature 30 °F 40 °F 30 °F (2013)
Degree Days  
Heating Degree Days 24    
Moisture  
Dew Point 33 °F    
Average Humidity 77    
Maximum Humidity 100    
Minimum Humidity 47    
Precipitation  
Precipitation 0.00 in - - ()
Sea Level Pressure  
Sea Level Pressure 30.27 in    
Wind  
Wind Speed 3 mph (ENE)    
Max Wind Speed 12 mph    
Max Gust Speed -    
Visibility 9 miles    
Events      
Averages and records for this station are not official NWS values.
T = Trace of Precipitation, MM = Missing Value Source: NWS Daily Summary

Daily Weather History Graph

Daily Weather History Graph

Search for Another Location

Airport:

Trip Planner

Search our weather history database for the weather conditions in past years. The results will help you decide how hot, cold, wet, or windy it might be!

Date:

Astronomy

Jan. 20, 2013 Rise Set
Actual Time 7:46 AM PST 5:09 PM PST
Civil Twilight 7:14 AM PST 5:41 PM PST
Nautical Twilight 6:38 AM PST 6:16 PM PST
Astronomical Twilight 6:03 AM PST 6:51 PM PST
Moon 12:14 PM PST 2:22 AM PST
Length of Visible Light 10h 27m
Length of Day
9h 23m
Waxing Gibbous, 67% of the Moon is Illuminated
Jan 20
Waxing Gibbous
Jan 26
Full
Feb 3
Last Quarter
Feb 9
New
Feb 17
First Quarter

Hourly Weather History & Observations

Time (PST) Temp. Windchill Dew Point Humidity Pressure Visibility Wind Dir Wind Speed Gust Speed Precip Events Conditions
12:15 AM 33.8 °F - 33.8 °F 100% 30.32 in 5.0 mi Calm Calm - N/A   Clear
12:35 AM 32.0 °F - 32.0 °F 100% 30.32 in 2.5 mi Calm Calm - N/A   Clear
12:55 AM 32.0 °F - 32.0 °F 100% 30.32 in 0.8 mi Calm Calm - N/A   Scattered Clouds
1:15 AM 32.0 °F - 32.0 °F 100% 30.32 in 1.0 mi Calm Calm - N/A   Mostly Cloudy
1:35 AM 30.2 °F 26.7 °F 30.2 °F 100% 30.32 in 4.0 mi NE 3.5 mph - N/A   Scattered Clouds
1:55 AM 32.0 °F 28.7 °F 32.0 °F 100% 30.32 in 5.0 mi East 3.5 mph - N/A   Clear
2:15 AM 32.0 °F - 32.0 °F 100% 30.32 in 5.0 mi Calm Calm - N/A   Clear
2:35 AM 32.0 °F - 32.0 °F 100% 30.32 in 10.0 mi Calm Calm - N/A   Clear
2:55 AM 32.0 °F - 32.0 °F 100% 30.32 in 10.0 mi Calm Calm - N/A   Clear
3:15 AM 32.0 °F - 32.0 °F 100% 30.31 in 10.0 mi Calm Calm - N/A   Clear
3:35 AM 32.0 °F - 32.0 °F 100% 30.31 in 10.0 mi Calm Calm - N/A   Clear
3:55 AM 32.0 °F 28.7 °F 32.0 °F 100% 30.31 in 10.0 mi ENE 3.5 mph - N/A   Clear
4:15 AM 33.8 °F 30.8 °F 32.0 °F 93% 30.30 in 10.0 mi East 3.5 mph - N/A   Clear
4:35 AM 33.8 °F 30.8 °F 32.0 °F 93% 30.30 in 10.0 mi East 3.5 mph - N/A   Clear
4:55 AM 33.8 °F 29.6 °F 32.0 °F 93% 30.30 in 10.0 mi ENE 4.6 mph - N/A   Clear
5:15 AM 33.8 °F 29.6 °F 32.0 °F 93% 30.29 in 10.0 mi East 4.6 mph - N/A   Clear
5:35 AM 33.8 °F 29.6 °F 32.0 °F 93% 30.29 in 10.0 mi ENE 4.6 mph - N/A   Clear
5:55 AM 33.8 °F 29.6 °F 32.0 °F 93% 30.29 in 10.0 mi East 4.6 mph - N/A   Clear
6:15 AM 33.8 °F 30.8 °F 32.0 °F 93% 30.29 in 10.0 mi ENE 3.5 mph - N/A   Clear
6:35 AM 33.8 °F - 32.0 °F 93% 30.29 in 10.0 mi Calm Calm - N/A   Clear
6:55 AM 33.8 °F 29.6 °F 32.0 °F 93% 30.29 in 10.0 mi East 4.6 mph - N/A   Clear
7:15 AM 33.8 °F 27.7 °F 32.0 °F 93% 30.29 in 10.0 mi East 6.9 mph - N/A   Clear
7:35 AM 33.8 °F 30.8 °F 32.0 °F 93% 30.28 in 10.0 mi East 3.5 mph - N/A   Clear
7:55 AM 33.8 °F 27.7 °F 32.0 °F 93% 30.29 in 10.0 mi East 6.9 mph - N/A   Clear
8:15 AM 35.6 °F 32.8 °F 32.0 °F 87% 30.29 in 10.0 mi ENE 3.5 mph - N/A   Clear
8:35 AM 35.6 °F - 32.0 °F 87% 30.29 in 10.0 mi Calm Calm - N/A   Clear
8:55 AM 37.4 °F 32.1 °F 32.0 °F 81% 30.30 in 10.0 mi East 6.9 mph - N/A   Clear
9:15 AM 37.4 °F 31.4 °F 32.0 °F 81% 30.30 in 10.0 mi East 8.1 mph - N/A   Clear
9:35 AM 41.0 °F 37.1 °F 32.0 °F 70% 30.30 in 10.0 mi East 5.8 mph - N/A   Clear
9:55 AM 41.0 °F 37.1 °F 32.0 °F 70% 30.30 in 10.0 mi East 5.8 mph - N/A   Clear
10:15 AM 42.8 °F 39.3 °F 32.0 °F 66% 30.30 in 10.0 mi ENE 5.8 mph - N/A   Clear
10:55 AM 46.4 °F 43.5 °F 33.8 °F 62% 30.30 in 10.0 mi East 5.8 mph - N/A   Clear
11:15 AM 46.4 °F 44.3 °F 33.8 °F 62% 30.30 in 10.0 mi East 4.6 mph - N/A   Clear
11:35 AM 48.2 °F - 33.8 °F 58% 30.29 in 10.0 mi ENE 6.9 mph - N/A   Clear
11:55 AM 50.0 °F - 33.8 °F 54% 30.28 in 10.0 mi East 6.9 mph - N/A   Clear
12:15 PM 51.8 °F - 33.8 °F 50% 30.27 in 10.0 mi East 5.8 mph - N/A   Clear
12:35 PM 51.8 °F - 33.8 °F 50% 30.27 in 10.0 mi East 5.8 mph - N/A   Clear
12:55 PM 51.8 °F - 33.8 °F 50% 30.26 in 10.0 mi ENE 5.8 mph - N/A   Clear
1:15 PM 53.6 °F - 33.8 °F 47% 30.25 in 10.0 mi ENE 5.8 mph - N/A   Clear
1:35 PM 53.6 °F - 33.8 °F 47% 30.24 in 10.0 mi ENE 3.5 mph - N/A   Clear
1:55 PM 53.6 °F - 33.8 °F 47% 30.24 in 10.0 mi Calm Calm - N/A   Clear
2:15 PM 51.8 °F - 41.0 °F 67% 30.24 in 5.0 mi NW 5.8 mph - N/A   Haze
2:35 PM 50.0 °F - 41.0 °F 71% 30.23 in 4.0 mi NNW 8.1 mph - N/A   Haze
2:55 PM 50.0 °F - 41.0 °F 71% 30.23 in 5.0 mi NNW 6.9 mph - N/A   Haze
3:15 PM 50.0 °F - 41.0 °F 71% 30.24 in 4.0 mi NNW 6.9 mph - N/A   Haze
3:35 PM 48.2 °F - 41.0 °F 76% - 5.0 mi NNW 5.8 mph - N/A   Haze
3:55 PM 48.2 °F - 41.0 °F 76% 30.23 in 5.0 mi NNW 3.5 mph - N/A   Haze
4:15 PM 48.2 °F - 41.0 °F 76% 30.22 in 3.0 mi Calm Calm - N/A   Haze
4:35 PM 48.2 °F - 41.0 °F 76% 30.22 in 3.0 mi Calm Calm - N/A   Haze
4:55 PM 46.4 °F 45.2 °F 41.0 °F 81% 30.21 in 3.0 mi NNE 3.5 mph - N/A   Haze
5:15 PM 46.4 °F - 35.6 °F 66% 30.21 in 10.0 mi Calm Calm - N/A   Clear
5:35 PM 44.6 °F 42.2 °F 33.8 °F 66% 30.21 in 10.0 mi ENE 4.6 mph - N/A   Clear
5:55 PM 44.6 °F 42.2 °F 32.0 °F 61% 30.21 in 10.0 mi East 4.6 mph - N/A   Clear
6:15 PM 44.6 °F - 32.0 °F 61% 30.22 in 10.0 mi Calm Calm - N/A   Clear
6:35 PM 42.8 °F 41.1 °F 32.0 °F 66% 30.22 in 10.0 mi East 3.5 mph - N/A   Clear
6:55 PM 42.8 °F 39.3 °F 32.0 °F 66% 30.23 in 10.0 mi ENE 5.8 mph - N/A   Clear
7:15 PM 41.0 °F 35.8 °F 32.0 °F 70% - 10.0 mi East 8.1 mph - N/A   Clear
7:35 PM 41.0 °F 35.8 °F 32.0 °F 70% 30.23 in 10.0 mi East 8.1 mph - N/A   Clear
7:55 PM 41.0 °F 35.2 °F 30.2 °F 65% 30.22 in 10.0 mi East 9.2 mph - N/A   Clear
8:15 PM 41.0 °F 35.8 °F 30.2 °F 65% 30.22 in 10.0 mi East 8.1 mph - N/A   Clear
8:35 PM 41.0 °F 35.2 °F 30.2 °F 65% 30.22 in 10.0 mi East 9.2 mph - N/A   Clear
8:55 PM 41.0 °F 35.8 °F 30.2 °F 65% 30.22 in 10.0 mi East 8.1 mph - N/A   Clear
9:15 PM 41.0 °F 35.8 °F 30.2 °F 65% 30.22 in 10.0 mi East 8.1 mph - N/A   Clear
9:35 PM 39.2 °F 32.5 °F 30.2 °F 70% 30.22 in 10.0 mi East 10.4 mph - N/A   Clear
9:55 PM 39.2 °F 33.0 °F 30.2 °F 70% 30.22 in 10.0 mi East 9.2 mph - N/A   Clear
10:15 PM 39.2 °F 33.6 °F 30.2 °F 70% 30.23 in 10.0 mi East 8.1 mph - N/A   Clear
10:35 PM 39.2 °F 33.0 °F 30.2 °F 70% 30.23 in 10.0 mi East 9.2 mph - N/A   Clear
10:55 PM 39.2 °F 32.0 °F 30.2 °F 70% 30.23 in 10.0 mi East 11.5 mph - N/A   Clear
11:15 PM 37.4 °F 31.4 °F 30.2 °F 75% 30.23 in 10.0 mi East 8.1 mph - N/A   Clear
11:35 PM 37.4 °F 31.4 °F 30.2 °F 75% 30.24 in 10.0 mi East 8.1 mph - N/A   Clear
11:55 PM 37.4 °F 31.4 °F 30.2 °F 75% 30.23 in 10.0 mi East 8.1 mph - N/A   Clear